Boise, ID

11:30 PM MST on December 05, 2016 (GMT -0700)
Boise Air Term

Weather History for KBOI - July, 2013

Change the Weather History Date:

Saturday, July 6, 2013

  Actual Average Record
Temperature  
Mean Temperature 75 °F 74 °F  
Max Temperature 93 °F 89 °F 105 °F (2007)
Min Temperature 57 °F 59 °F 40 °F (1897)
Degree Days  
Heating Degree Days 0 0  
Month to date heating degree days 0 4  
Since 1 June heating degree days 35 68  
Since 1 July heating degree days 0 4  
Cooling Degree Days 10 9  
Month to date cooling degree days 117 51  
Year to date cooling degree days 355 234  
Since 1 June cooling degree days 308 190  
Growing Degree Days 25 (Base 50)    
Moisture  
Dew Point 37 °F    
Average Humidity 30    
Maximum Humidity 51    
Minimum Humidity 9    
Precipitation  
Precipitation 0.00 in 0.01 in 0.23 in (1981)
Month to date precipitation T 0.08  
Year to date precipitation 4.33 7.01  
Snow  
Snow 0.00 in 0.00 in 0.00 in (2006)
Month to date snowfall 0.0 0.0  
Since 1 July snowfall 0.0 0.0  
Snow Depth 0.00 in    
Sea Level Pressure  
Sea Level Pressure 29.73 in    
Wind  
Wind Speed 6 mph (NW)    
Max Wind Speed 20 mph    
Max Gust Speed 25 mph    
Visibility 10 miles    
Events      
T = Trace of Precipitation, MM = Missing Value Source: NWS Daily Summary

Daily Weather History Graph

Daily Weather History Graph

Search for Another Location

Airport or City:

Trip Planner

Search our weather history database for the weather conditions in past years. The results will help you decide how hot, cold, wet, or windy it might be!

Date:

Astronomy

Jul. 06, 2013 Rise Set
Actual Time 6:10 AM MDT 9:28 PM MDT
Civil Twilight 5:35 AM MDT 10:03 PM MDT
Nautical Twilight 4:49 AM MDT 10:49 PM MDT
Astronomical Twilight 3:52 AM MDT 11:45 PM MDT
Moon 5:02 AM MDT 8:11 PM MDT
Length of Visible Light 16h 28m
Length of Day
15h 17m
Waning Crescent, 2% of the Moon is Illuminated
Jul 6
Waning Crescent
Jul 8
New
Jul 15
First Quarter
Jul 22
Full
Jul 29
Last Quarter

Hourly Weather History & Observations

Time (MDT) Temp. Dew Point Humidity Pressure Visibility Wind Dir Wind Speed Gust Speed Precip Events Conditions
12:53 AM 72.0 °F 35.1 °F 26% 29.74 in 10.0 mi West 10.4 mph - N/A   Clear
1:53 AM 66.9 °F 39.9 °F 37% 29.74 in 10.0 mi NW 6.9 mph - N/A   Clear
2:53 AM 64.9 °F 41.0 °F 42% 29.75 in 10.0 mi WSW 4.6 mph - N/A   Clear
3:53 AM 60.1 °F 42.1 °F 51% 29.77 in 10.0 mi Calm Calm - N/A   Clear
4:53 AM 61.0 °F 39.9 °F 46% 29.77 in 10.0 mi Calm Calm - N/A   Clear
5:53 AM 59.0 °F 39.9 °F 49% 29.78 in 10.0 mi Calm Calm - N/A   Clear
6:53 AM 57.0 °F 39.9 °F 53% 29.79 in 10.0 mi Calm Calm - N/A   Clear
7:53 AM 61.0 °F 39.9 °F 46% 29.79 in 10.0 mi Calm Calm - N/A   Clear
8:53 AM 63.0 °F 39.9 °F 43% 29.80 in 10.0 mi Calm Calm - N/A   Clear
9:53 AM 68.0 °F 42.1 °F 39% 29.80 in 10.0 mi West 5.8 mph - N/A   Clear
10:53 AM 73.0 °F 42.1 °F 33% 29.80 in 10.0 mi West 5.8 mph - N/A   Partly Cloudy
11:53 AM 73.9 °F 41.0 °F 30% 29.79 in 10.0 mi WNW 4.6 mph - N/A   Partly Cloudy
12:53 PM 81.0 °F 41.0 °F 24% 29.77 in 10.0 mi NNW 8.1 mph - N/A   Clear
1:53 PM 84.0 °F 41.0 °F 22% 29.75 in 10.0 mi North 8.1 mph - N/A   Clear
2:53 PM 88.0 °F 39.9 °F 18% 29.72 in 10.0 mi WNW 11.5 mph 16.1 mph N/A   Clear
3:53 PM 90.0 °F 36.0 °F 15% 29.70 in 10.0 mi NW 9.2 mph - N/A   Clear
4:53 PM 91.0 °F 33.1 °F 13% 29.68 in 10.0 mi NW 12.7 mph 17.3 mph N/A   Clear
5:53 PM 91.9 °F 30.0 °F 11% 29.65 in 10.0 mi NW 16.1 mph 23.0 mph N/A   Clear
6:53 PM 91.9 °F 26.1 °F 9% 29.65 in 10.0 mi NNW 16.1 mph - N/A   Clear
7:53 PM 90.0 °F 24.1 °F 9% 29.64 in 10.0 mi NNW 12.7 mph - N/A   Clear
8:53 PM 88.0 °F 28.0 °F 12% 29.65 in 10.0 mi North 8.1 mph - N/A   Clear
9:53 PM 84.9 °F 28.9 °F 13% 29.65 in 10.0 mi Calm Calm - N/A   Clear
10:53 PM 78.1 °F 37.0 °F 23% 29.68 in 10.0 mi WSW 6.9 mph - N/A   Clear
11:53 PM 73.9 °F 34.0 °F 23% 29.70 in 10.0 mi East 3.5 mph - N/A   Clear